sat.trackr.live / text

‹ back to catalog

STARLINK-11487 [DTC]

NORAD 62278 · 2024-237M

PAYLOAD ACTIVE UNKNOWN

§ Identity

Operator
Country
US
Launch date
2024-12-08
Launch site
AFETR
Launch vehicle
Mass (kg)
RCS (m²)

Purposes: comms

External: N2YO · Heavens-Above · Gunter

§ Orbital elements

Epoch: 2026-05-24T20:12:47.420928Z

Period
91.67 min
Inclination
43.0009°
Eccentricity
0.0003091
Mean motion
15.70925608 rev/d
Perigee alt
354.2 km
Apogee alt
358.3 km
Semi-major
6,734.4 km
B*
1.3403e-3
RAAN
318.0749°
Arg perigee
264.7319°
Mean anomaly
95.3196°
Rev number
8,502

§ Raw data

STARLINK-11487 [DTC]1 62278U 24237M   26144.84221552  .00175863  00000+0  13403-2 0  99912 62278  43.0009 318.0749 0003091 264.7319  95.3196 15.70925608 85021

JSON: /api/v1/satellites/62278 · /tle

For live sub-satellite position, see the globe view (requires WebGL).

§ Visibility from observer

Set your observer location to see the next 7 days of passes ≥ 10°. The values pass through the URL so the page stays shareable.

No JS? Fill the form by hand. The geolocation button needs JavaScript.